Torna al catalogo

STARLINK-31435

AttivoComunicazioniVLEO
NORAD 59004·PAYLOAD·🇺🇸 United States

Lanciato Feb 23, 2024 da Vandenberg Space Force Base

Loading…

Prossimi Passaggi (prossime 24 ore)

TLE

AggiornatoSource: CelesTrak SupGP

Epoca: Sep 14, 2026, 21:25 UTC

1 59004C 24036G   26257.89284722  .00043008  00000+0  12713-2 0  2574
2 59004  53.1578 277.8366 0001285  87.2430 204.4349 15.34354421    17

Traccia STARLINK-31435 in tempo reale con AllMySat

Download on the App Store